FW7227 Weather Reports


time (UTC)temp
C
wind
direction
speed
KPH
gust
KPH
rain 1hr
cm
rain 24hr
cm
rain mn
cm
humidity
%
barometer
mb
20260510154057 19 189 6.4 20.9 0.00 0.00 0.00 59 1009.1
20260510153555 20 136 11.3 20.9 0.00 0.00 0.00 59 1009.1
20260510153056 20 164 8.0 16.1 0.00 0.00 0.00 60 1009.2
20260510152557 20 181 8.0 16.1 0.00 0.00 0.00 62 1009.2
20260510152056 20 171 4.8 14.5 0.00 0.00 0.00 59 1009.3
20260510151558 20 178 4.8 12.9 0.00 0.00 0.00 60 1009.3
20260510151057 20 207 4.8 12.9 0.00 0.00 0.00 59 1009.5
20260510150600 20 184 6.4 12.9 0.00 0.00 0.00 59 1009.5
20260510150125 21 138 8.0 12.9 0.00 0.00 0.00 57 1009.6
20260510145600 21 173 4.8 14.5 0.00 0.00 0.00 57 1009.7
20260510145056 20 151 6.4 16.1 0.00 0.00 0.00 57 1009.7
20260510144619 20 161 8.0 16.1 0.00 0.00 0.00 56 1009.8
20260510144058 20 154 4.8 12.9 0.00 0.00 0.00 54 1009.8
20260510143557 20 188 6.4 12.9 0.00 0.00 0.00 53 1009.9
20260510143058 20 163 4.8 12.9 0.00 0.00 0.00 55 1010.0
20260510142556 20 173 3.2 12.9 0.00 0.00 0.00 55 1010.0
20260510142056 20 232 3.2 12.9 0.00 0.00 0.00 55 1010.0
20260510141603 20 192 6.4 12.9 0.00 0.00 0.00 54 1010.1
20260510141056 20 163 8.0 12.9 0.00 0.00 0.00 53 1010.1
20260510140555 20 182 1.6 9.7 0.00 0.00 0.00 53 1010.2
20260510140059 20 187 3.2 9.7 0.00 0.00 0.00 53 1010.3
20260510135556 20 175 4.8 9.7 0.00 0.00 0.00 54 1010.4
20260510135056 20 200 1.6 9.7 0.00 0.00 0.00 54 1010.4
20260510134607 20 189 3.2 9.7 0.00 0.00 0.00 52 1010.5
20260510134056 21 0 1.6 9.7 0.00 0.00 0.00 53 1010.6
20260510133557 21 236 4.8 16.1 0.00 0.00 0.00 53 1010.6
20260510133056 21 0 4.8 16.1 0.00 0.00 0.00 51 1010.6
20260510132556 21 208 1.6 8.0 0.00 0.00 0.00 51 1010.7
20260510132059 21 234 3.2 9.7 0.00 0.00 0.00 51 1010.8
20260510131601 22 191 4.8 14.5 0.00 0.00 0.00 49 1010.8
20260510131056 21 190 8.0 14.5 0.00 0.00 0.00 51 1010.9
20260510130556 21 230 4.8 12.9 0.00 0.00 0.00 50 1010.9
20260510130054 21 317 3.2 9.7 0.00 0.00 0.00 47 1011.0
20260510125557 21 0 3.2 9.7 0.00 0.00 0.00 49 1011.1
20260510125056 21 215 1.6 9.7 0.00 0.00 0.00 46 1011.2
20260510124601 21 186 4.8 11.3 0.00 0.00 0.00 49 1011.3
20260510124057 22 175 4.8 11.3 0.00 0.00 0.00 47 1011.4
20260510123557 22 198 1.6 11.3 0.00 0.00 0.00 47 1011.4
20260510123056 22 172 3.2 12.9 0.00 0.00 0.00 45 1011.4
20260510122556 22 251 3.2 12.9 0.00 0.00 0.00 46 1011.5
20260510122056 22 245 3.2 12.9 0.00 0.00 0.00 47 1011.5
20260510121557 22 167 0.0 14.5 0.00 0.00 0.00 52 1011.6
20260510121058 22 237 4.8 14.5 0.00 0.00 0.00 46 1011.6
20260510120557 22 0 3.2 11.3 0.00 0.00 0.00 47 1011.6
20260510120057 22 223 4.8 14.5 0.00 0.00 0.00 50 1011.7
20260510115556 22 226 3.2 14.5 0.00 0.00 0.00 47 1011.8
20260510115056 22 150 6.4 14.5 0.00 0.00 0.00 49 1011.8
20260510114614 22 171 0.0 16.1 0.00 0.00 0.00 53 1011.9
20260510114056 22 175 1.6 16.1 0.00 0.00 0.00 49 1011.9
20260510113556 21 168 3.2 16.1 0.00 0.00 0.00 51 1012.0
20260510113059 21 174 4.8 16.1 0.00 0.00 0.00 50 1012.0
20260510112556 21 360 3.2 14.5 0.00 0.00 0.00 51 1012.1
20260510112056 21 0 4.8 16.1 0.00 0.00 0.00 49 1012.1
20260510111601 21 167 8.0 16.1 0.00 0.00 0.00 52 1012.2
20260510111056 21 126 6.4 17.7 0.00 0.00 0.00 52 1012.3
20260510110556 21 165 6.4 17.7 0.00 0.00 0.00 51 1012.3
20260510110054 20 213 6.4 14.5 0.00 0.00 0.00 50 1012.3
20260510105556 20 95 6.4 14.5 0.00 0.00 0.00 53 1012.4
20260510105057 20 181 6.4 16.1 0.00 0.00 0.00 53 1012.5
20260510104600 20 175 8.0 16.1 0.00 0.00 0.00 51 1012.4
20260510104056 20 146 8.0 16.1 0.00 0.00 0.00 51 1012.5
20260510103556 20 140 4.8 17.7 0.00 0.00 0.00 54 1012.5
20260510103054 20 177 8.0 17.7 0.00 0.00 0.00 52 1012.7
20260510102556 20 161 8.0 14.5 0.00 0.00 0.00 51 1012.7
20260510102055 20 140 6.4 17.7 0.00 0.00 0.00 54 1012.8
20260510101602 20 107 4.8 17.7 0.00 0.00 0.00 54 1012.8
20260510101057 20 100 8.0 14.5 0.00 0.00 0.00 53 1012.8
20260510100556 20 112 6.4 12.9 0.00 0.00 0.00 51 1012.8
20260510095556 20 166 8.0 20.9 0.00 0.00 0.00 54 1012.8
20260510095055 20 109 4.8 12.9 0.00 0.00 0.00 53 1012.8
20260510094604 20 167 6.4 12.9 0.00 0.00 0.00 54 1012.9
20260510094056 19 0 3.2 16.1 0.00 0.00 0.00 54 1012.9
20260510093556 19 94 3.2 16.1 0.00 0.00 0.00 55 1012.9
20260510093058 19 94 3.2 14.5 0.00 0.00 0.00 56 1012.9
20260510092559 19 123 3.2 16.1 0.00 0.00 0.00 57 1013.0
20260510092056 19 128 8.0 16.1 0.00 0.00 0.00 59 1013.0
20260510091558 19 71 6.4 14.5 0.00 0.00 0.00 57 1013.1
20260510091056 19 92 4.8 16.1 0.00 0.00 0.00 57 1013.1
20260510090556 18 125 9.7 16.1 0.00 0.00 0.00 61 1013.2
20260510090056 18 360 3.2 12.9 0.00 0.00 0.00 63 1013.1
20260510085558 18 165 8.0 12.9 0.00 0.00 0.00 61 1013.1
20260510085056 18 117 3.2 12.9 0.00 0.00 0.00 64 1013.2
20260510084556 18 150 6.4 12.9 0.00 0.00 0.00 62 1013.2
20260510084056 17 59 6.4 12.9 0.00 0.00 0.00 63 1013.2
20260510083557 17 70 3.2 14.5 0.00 0.00 0.00 66 1013.2
20260510083100 17 80 8.0 14.5 0.00 0.00 0.00 66 1013.3
20260510082555 17 74 6.4 14.5 0.00 0.00 0.00 68 1013.2
20260510082056 17 94 6.4 12.9 0.00 0.00 0.00 69 1013.3
20260510081556 16 360 4.8 12.9 0.00 0.00 0.00 69 1013.3
20260510081056 16 360 3.2 8.0 0.00 0.00 0.00 70 1013.5
20260510080556 16 124 1.6 8.0 0.00 0.00 0.00 69 1013.5
20260510080100 15 146 3.2 9.7 0.00 0.00 0.00 70 1013.6
20260510075557 15 360 3.2 9.7 0.00 0.00 0.00 71 1013.6
20260510075056 15 360 1.6 8.0 0.00 0.00 0.00 73 1013.7
20260510074605 15 360 3.2 8.0 0.00 0.00 0.00 73 1013.7
20260510074055 14 360 3.2 9.7 0.00 0.00 0.00 74 1013.7
20260510073556 14 157 4.8 9.7 0.00 0.00 0.00 72 1013.8
20260510073100 14 144 3.2 9.7 0.00 0.00 0.00 73 1013.7
20260510072556 14 360 3.2 9.7 0.00 0.00 0.00 74 1013.9
20260510072056 13 162 3.2 8.0 0.00 0.00 0.00 74 1013.8
20260510071557 13 360 1.6 8.0 0.00 0.00 0.00 74 1013.9
20260510071056 13 360 3.2 9.7 0.00 0.00 0.00 74 1014.0
20260510070556 13 360 3.2 9.7 0.00 0.00 0.00 74 1014.0
20260510070109 13 360 3.2 9.7 0.00 0.00 0.00 75 1014.0
20260510065556 13 360 4.8 9.7 0.00 0.00 0.00 75 1014.1
20260510065056 13 360 3.2 8.0 0.00 0.00 0.00 77 1014.1
20260510064600 12 360 3.2 6.4 0.00 0.00 0.00 77 1014.1
20260510064056 12 360 3.2 12.9 0.00 0.00 0.00 78 1014.0
20260510063556 12 0 1.6 12.9 0.00 0.00 0.00 79 1014.1
20260510063100 11 360 8.0 12.9 0.00 0.00 0.00 80 1014.0
20260510062556 11 360 6.4 12.9 0.00 0.00 0.00 83 1014.1
20260510062056 11 360 3.2 9.7 0.00 0.00 0.00 84 1014.2
20260510061556 10 360 1.6 8.0 0.00 0.00 0.00 87 1014.2
20260510061057 10 360 1.6 8.0 0.00 0.00 0.00 89 1014.2
20260510060557 9 360 3.2 8.0 0.00 0.00 0.00 90 1014.2
20260510055556 8 360 1.6 4.8 0.00 0.00 0.00 91 1014.3
20260510055057 8 0 0.0 3.2 0.00 0.00 0.00 91 1014.4
20260510054601 8 0 0.0 3.2 0.00 0.00 0.00 92 1014.4
20260510054057 8 0 0.0 1.6 0.00 0.00 0.00 92 1014.3
20260510053559 7 0 0.0 1.6 0.00 0.00 0.00 91 1014.4
20260510053055 7 0 0.0 1.6 0.00 0.00 0.00 92 1014.4
20260510052557 7 0 0.0 4.8 0.00 0.00 0.00 91 1014.4
20260510052056 7 0 0.0 4.8 0.00 0.00 0.00 91 1014.4
20260510051557 7 0 0.0 0.0 0.00 0.00 0.00 91 1014.3
20260510051100 7 0 0.0 0.0 0.00 0.00 0.00 91 1014.4
20260510050557 7 0 0.0 0.0 0.00 0.00 0.00 91 1014.4
20260510050100 7 0 0.0 0.0 0.00 0.00 0.00 91 1014.4
20260510045559 7 0 0.0 0.0 0.00 0.00 0.00 91 1014.4
20260510045056 6 0 0.0 4.8 0.00 0.00 0.00 90 1014.3
20260510044611 6 0 0.0 4.8 0.00 0.00 0.00 90 1014.4
20260510044100 6 0 0.0 0.0 0.00 0.00 0.00 90 1014.4
20260510043557 6 0 0.0 0.0 0.00 0.00 0.00 89 1014.5
20260510043104 6 0 0.0 0.0 0.00 0.00 0.00 89 1014.7
20260510042557 6 0 0.0 0.0 0.00 0.00 0.00 89 1014.7
20260510042059 6 0 0.0 0.0 0.00 0.00 0.00 89 1014.7
20260510041559 6 0 0.0 0.0 0.00 0.00 0.00 89 1014.7
20260510041057 6 0 0.0 0.0 0.00 0.00 0.00 88 1014.7
20260510040558 6 0 0.0 0.0 0.00 0.00 0.00 88 1014.7
20260510040056 6 0 0.0 0.0 0.00 0.00 0.00 88 1014.7
20260510035557 6 0 0.0 0.0 0.00 0.00 0.00 87 1014.8
20260510035059 6 0 0.0 0.0 0.00 0.00 0.00 87 1014.9
20260510034558 6 0 0.0 0.0 0.00 0.00 0.00 87 1014.9
20260510034058 6 0 0.0 0.0 0.00 0.00 0.00 87 1014.8
20260510033601 6 0 0.0 1.6 0.00 0.00 0.00 86 1014.9
20260510033123 6 0 0.0 3.2 0.00 0.00 0.00 86 1014.9
20260510032600 6 0 0.0 4.8 0.00 0.00 0.00 86 1014.9
20260510032057 6 0 0.0 4.8 0.00 0.00 0.00 86 1015.0
20260510031619 6 360 0.0 0.0 0.00 0.00 0.00 86 1015.0
20260510031058 6 0 0.0 0.0 0.00 0.00 0.00 86 1014.9
20260510030557 7 0 0.0 0.0 0.00 0.00 0.00 86 1015.0
20260510030101 7 0 0.0 0.0 0.00 0.00 0.00 86 1014.9
20260510025557 7 0 0.0 0.0 0.00 0.00 0.00 86 1015.1
20260510025058 7 0 0.0 0.0 0.00 0.00 0.00 86 1015.1
20260510024557 7 0 0.0 0.0 0.00 0.00 0.00 86 1015.1
20260510024101 7 0 0.0 1.6 0.00 0.00 0.00 87 1015.2
20260510023557 7 0 0.0 4.8 0.00 0.00 0.00 87 1015.2
20260510023055 7 0 0.0 4.8 0.00 0.00 0.00 87 1015.3
20260510022557 7 360 0.0 6.4 0.00 0.00 0.00 87 1015.3
20260510022058 7 0 0.0 6.4 0.00 0.00 0.00 87 1015.2
20260510021556 7 360 3.2 6.4 0.00 0.00 0.00 87 1015.3
20260510021056 7 360 3.2 8.0 0.00 0.00 0.00 87 1015.3
20260510020557 7 360 3.2 8.0 0.00 0.00 0.00 86 1015.4
20260510020058 7 360 3.2 8.0 0.00 0.00 0.00 86 1015.4
20260510015600 7 360 1.6 4.8 0.00 0.00 0.00 85 1015.5
20260510015056 7 360 0.0 1.6 0.00 0.00 0.00 84 1015.6
20260510014608 7 0 0.0 0.0 0.00 0.00 0.00 84 1015.7
20260510014058 7 0 0.0 0.0 0.00 0.00 0.00 84 1015.8
20260510013558 7 0 0.0 0.0 0.00 0.00 0.00 85 1015.7
20260510013057 7 0 0.0 3.2 0.00 0.00 0.00 85 1015.8
20260510012557 7 0 0.0 4.8 0.00 0.00 0.00 85 1015.7
20260510012059 7 0 0.0 6.4 0.00 0.00 0.00 85 1015.6
20260510011600 7 0 1.6 9.7 0.00 0.00 0.00 85 1015.7
20260510011101 7 360 1.6 12.9 0.00 0.00 0.00 85 1015.7
20260510010557 7 360 1.6 12.9 0.00 0.00 0.00 85 1015.6
20260510010103 7 360 4.8 12.9 0.00 0.00 0.00 85 1015.7
20260510005557 7 360 4.8 12.9 0.00 0.00 0.00 85 1015.8
20260510005056 7 360 4.8 12.9 0.00 0.00 0.00 86 1015.8
20260510004558 7 360 4.8 12.9 0.00 0.00 0.00 86 1015.8
20260510004056 7 360 3.2 9.7 0.00 0.00 0.00 86 1016.0
20260510003558 7 360 3.2 9.7 0.00 0.00 0.00 86 1016.1
20260510003101 7 360 3.2 9.7 0.00 0.00 0.00 86 1016.1
20260510002556 7 360 4.8 9.7 0.00 0.00 0.00 86 1016.1
20260510002057 7 360 4.8 9.7 0.00 0.00 0.00 86 1016.1
20260510001557 7 360 1.6 8.0 0.00 0.00 0.00 86 1016.3
20260510001124 7 360 1.6 9.7 0.00 0.00 0.00 86 1016.3
20260510000601 7 360 1.6 12.9 0.00 0.00 0.00 87 1016.4
20260510000059 7 360 1.6 12.9 0.00 0.00 0.00 87 1016.4
20260509235559 7 360 3.2 14.5 0.00 0.00 0.00 87 1016.5
20260509235057 7 360 4.8 14.5 0.00 0.00 0.00 88 1016.6
20260509234606 7 360 3.2 9.7 0.00 0.00 0.00 88 1016.6
20260509234057 7 360 3.2 9.7 0.00 0.00 0.00 88 1016.6
20260509233559 7 360 4.8 9.7 0.00 0.00 0.00 88 1016.6
20260509233057 7 360 4.8 9.7 0.00 0.00 0.00 87 1016.7
20260509232557 6 360 3.2 9.7 0.00 0.00 0.00 87 1016.7
20260509232057 6 360 3.2 8.0 0.00 0.00 0.00 86 1016.9
20260509231556 6 360 1.6 8.0 0.00 0.00 0.00 86 1017.0
20260509231057 6 0 1.6 6.4 0.00 0.00 0.00 85 1017.0
20260509230556 6 360 1.6 6.4 0.00 0.00 0.00 85 1017.1
20260509230057 6 360 3.2 6.4 0.00 0.00 0.00 83 1017.0
20260509225557 6 360 1.6 6.4 0.00 0.00 0.00 82 1017.1
20260509225057 7 360 1.6 4.8 0.00 0.00 0.00 82 1017.3
20260509224557 7 0 1.6 3.2 0.00 0.00 0.00 82 1017.5
20260509224058 7 360 0.0 3.2 0.00 0.00 0.00 82 1017.5
20260509223557 7 0 0.0 1.6 0.00 0.00 0.00 82 1017.6
20260509223059 7 0 0.0 0.0 0.00 0.00 0.00 82 1017.5
20260509222559 7 0 0.0 0.0 0.00 0.00 0.00 81 1017.4
20260509222057 7 0 0.0 3.2 0.00 0.00 0.00 81 1017.4
20260509221557 7 0 0.0 3.2 0.00 0.00 0.00 82 1017.4
20260509221057 7 0 0.0 4.8 0.00 0.00 0.00 82 1017.4
20260509220557 7 0 0.0 4.8 0.00 0.00 0.00 82 1017.5
20260509215557 8 360 3.2 6.4 0.00 0.00 0.00 81 1017.7
20260509215057 8 360 0.0 4.8 0.00 0.00 0.00 81 1017.8
20260509214558 8 0 0.0 4.8 0.00 0.00 0.00 81 1017.8
20260509214057 8 0 0.0 1.6 0.00 0.00 0.00 80 1017.9
20260509213557 8 0 0.0 3.2 0.00 0.00 0.00 80 1017.9
20260509213058 8 0 0.0 4.8 0.00 0.00 0.00 80 1017.9
20260509212557 8 360 0.0 4.8 0.00 0.00 0.00 80 1017.9
20260509212057 8 360 3.2 4.8 0.00 0.00 0.00 80 1017.9
20260509211604 9 360 0.0 4.8 0.00 0.00 0.00 79 1017.9
20260509211057 9 0 0.0 4.8 0.00 0.00 0.00 78 1018.0
20260509210557 9 0 0.0 4.8 0.00 0.00 0.00 77 1017.8
20260509210100 9 0 0.0 4.8 0.00 0.00 0.00 77 1017.9
20260509205558 10 0 0.0 4.8 0.00 0.00 0.00 77 1017.9
20260509205101 10 360 0.0 3.2 0.00 0.00 0.00 76 1017.9
20260509204604 10 0 0.0 3.2 0.00 0.00 0.00 76 1017.9
20260509204058 10 0 0.0 4.8 0.00 0.00 0.00 76 1017.9
20260509203556 10 0 1.6 4.8 0.00 0.00 0.00 75 1018.0
20260509203055 10 360 1.6 4.8 0.00 0.00 0.00 75 1018.1
20260509202556 10 360 1.6 4.8 0.00 0.00 0.00 75 1018.1
20260509202057 10 360 1.6 6.4 0.00 0.00 0.00 75 1018.1
20260509201600 11 360 1.6 6.4 0.00 0.00 0.00 75 1018.1
20260509201057 11 0 3.2 14.5 0.00 0.00 0.00 75 1018.1
20260509200555 11 360 4.8 14.5 0.00 0.00 0.00 75 1018.1
20260509200057 11 360 6.4 9.7 0.00 0.00 0.00 74 1018.0
20260509195558 11 360 3.2 9.7 0.00 0.00 0.00 74 1018.1
20260509195057 11 360 3.2 8.0 0.00 0.00 0.00 73 1018.1
20260509194558 11 360 3.2 6.4 0.00 0.00 0.00 73 1018.1
20260509194101 11 360 1.6 6.4 0.00 0.00 0.00 73 1018.1
20260509193557 11 360 1.6 6.4 0.00 0.00 0.00 73 1018.1
20260509193058 12 360 3.2 6.4 0.00 0.00 0.00 72 1018.0
20260509192557 12 360 1.6 8.0 0.00 0.00 0.00 72 1018.0
20260509192057 12 360 3.2 8.0 0.00 0.00 0.00 72 1017.9
20260509191611 12 360 3.2 8.0 0.00 0.00 0.00 72 1017.9
20260509191100 12 360 4.8 8.0 0.00 0.00 0.00 71 1018.0
20260509190556 12 360 3.2 6.4 0.00 0.00 0.00 70 1018.0
20260509190106 12 360 3.2 6.4 0.00 0.00 0.00 70 1018.0
20260509185557 12 360 1.6 6.4 0.00 0.00 0.00 69 1018.0
20260509185057 12 360 1.6 8.0 0.00 0.00 0.00 69 1018.0
20260509184558 12 360 1.6 9.7 0.00 0.00 0.00 68 1017.9
20260509184058 13 360 4.8 9.7 0.00 0.00 0.00 68 1017.8
20260509183556 13 360 4.8 9.7 0.00 0.00 0.00 67 1017.8
20260509183107 13 360 3.2 9.7 0.00 0.00 0.00 67 1017.9
20260509182556 13 360 3.2 9.7 0.00 0.00 0.00 66 1017.9
20260509182057 13 360 4.8 9.7 0.00 0.00 0.00 66 1018.0
20260509181606 13 360 4.8 9.7 0.00 0.00 0.00 65 1017.9
20260509181058 13 360 4.8 14.5 0.00 0.00 0.00 65 1017.9
20260509180558 13 360 6.4 19.3 0.00 0.00 0.00 64 1017.9
20260509180059 14 360 8.0 22.5 0.00 0.00 0.00 64 1017.8
20260509175557 14 360 6.4 22.5 0.00 0.00 0.00 64 1017.9
20260509175057 14 360 11.3 22.5 0.00 0.00 0.00 63 1018.0
20260509174603 14 360 8.0 19.3 0.00 0.00 0.00 63 1018.0
20260509174058 15 360 8.0 19.3 0.00 0.00 0.00 62 1017.9
20260509173556 15 360 8.0 19.3 0.00 0.00 0.00 62 1017.9
20260509173112 15 360 8.0 19.3 0.00 0.00 0.00 62 1017.8
20260509172557 15 360 11.3 20.9 0.00 0.00 0.00 62 1017.7
20260509172057 15 360 6.4 27.4 0.00 0.00 0.00 61 1017.8
20260509171603 15 360 14.5 27.4 0.00 0.00 0.00 61 1017.8
20260509171056 15 360 11.3 24.1 0.00 0.00 0.00 61 1017.8
20260509170600 15 360 9.7 24.1 0.00 0.00 0.00 62 1017.9
20260509170055 15 360 11.3 24.1 0.00 0.00 0.00 61 1017.8
20260509165557 15 360 9.7 20.9 0.00 0.00 0.00 61 1017.8
20260509165100 15 360 11.3 20.9 0.00 0.00 0.00 61 1017.9
20260509164555 15 360 9.7 22.5 0.00 0.00 0.00 61 1017.9
20260509164059 15 360 14.5 22.5 0.00 0.00 0.00 62 1017.9
20260509163559 15 360 9.7 17.7 0.00 0.00 0.00 64 1018.1
20260509163105 15 360 6.4 19.3 0.00 0.00 0.00 63 1018.2
20260509162557 15 360 9.7 19.3 0.00 0.00 0.00 63 1018.2
20260509162057 15 360 6.4 22.5 0.00 0.00 0.00 62 1018.2
20260509161603 15 360 11.3 22.5 0.00 0.00 0.00 61 1018.2
20260509161056 15 360 12.9 22.5 0.00 0.00 0.00 62 1018.3
20260509160557 15 360 11.3 19.3 0.00 0.00 0.00 62 1018.3
20260509160100 15 360 9.7 20.9 0.00 0.00 0.00 62 1018.4
20260509155558 15 360 8.0 20.9 0.00 0.00 0.00 61 1018.4
20260509155101 15 360 8.0 17.7 0.00 0.00 0.00 61 1018.4
20260509154614 15 360 8.0 17.7 0.00 0.00 0.00 61 1018.4